Time,TemperatureF,DewpointF,PressureIn,WindDirection,WindDirectionDegrees,WindSpeedMPH,WindSpeedGustMPH,Humidity,HourlyPrecipIn,Conditions,Clouds,dailyrainin,SoftwareType,DateUTC
2013-02-02 00:00:00,46.7,35.1,30.25,NE,45,0.0,0.0,64,0.00,,,0.00,WUHU216HW,2013-02-02 05:00:00,
2013-02-02 00:01:00,46.5,35.1,30.25,NE,45,0.0,0.0,64,0.00,,,0.00,WUHU216HW,2013-02-02 05:01:00,
2013-02-02 00:06:00,46.4,34.8,30.25,NE,45,0.0,0.0,64,0.00,,,0.00,WUHU216HW,2013-02-02 05:06:00,
2013-02-02 00:11:00,46.2,35.0,30.25,North,0,0.0,0.0,65,0.00,,,0.00,WUHU216HW,2013-02-02 05:11:00,
2013-02-02 00:16:00,45.6,34.5,30.25,NE,45,0.0,0.0,65,0.00,,,0.00,WUHU216HW,2013-02-02 05:16:00,
2013-02-02 00:21:00,45.5,34.3,30.25,NE,45,0.0,0.0,65,0.00,,,0.00,WUHU216HW,2013-02-02 05:21:00,
2013-02-02 00:26:00,45.3,34.2,30.24,NE,45,0.0,0.0,65,0.00,,,0.00,WUHU216HW,2013-02-02 05:26:00,
2013-02-02 00:31:00,45.3,34.5,30.24,NE,45,0.0,0.0,66,0.00,,,0.00,WUHU216HW,2013-02-02 05:31:00,
2013-02-02 00:36:00,45.1,34.4,30.24,NE,45,0.0,0.0,66,0.00,,,0.00,WUHU216HW,2013-02-02 05:36:00,
2013-02-02 00:41:00,44.9,34.2,30.24,NE,45,0.0,0.0,66,0.00,,,0.00,WUHU216HW,2013-02-02 05:41:00,
2013-02-02 00:46:00,44.9,34.6,30.24,NE,45,0.0,0.0,67,0.00,,,0.00,WUHU216HW,2013-02-02 05:46:00,
2013-02-02 00:51:00,44.7,34.4,30.24,NE,45,0.0,0.0,67,0.00,,,0.00,WUHU216HW,2013-02-02 05:51:00,
2013-02-02 00:56:00,44.7,34.2,30.24,NE,45,0.0,0.0,67,0.00,,,0.00,WUHU216HW,2013-02-02 05:56:00,
2013-02-02 01:01:00,44.4,34.1,30.24,NE,45,0.0,0.0,67,0.00,,,0.00,WUHU216HW,2013-02-02 06:01:00,
2013-02-02 01:06:00,44.4,34.1,30.24,NE,45,0.0,0.0,67,0.00,,,0.00,WUHU216HW,2013-02-02 06:06:00,
2013-02-02 01:11:00,44.6,34.6,30.24,NE,45,0.0,0.0,68,0.00,,,0.00,WUHU216HW,2013-02-02 06:11:00,
2013-02-02 01:16:00,44.6,34.6,30.24,NE,45,0.0,0.0,68,0.00,,,0.00,WUHU216HW,2013-02-02 06:16:00,
2013-02-02 01:21:00,44.7,34.8,30.24,NE,45,0.8,0.8,68,0.00,,,0.00,WUHU216HW,2013-02-02 06:21:00,
2013-02-02 01:26:00,44.7,35.2,30.23,NE,45,0.0,0.8,69,0.00,,,0.00,WUHU216HW,2013-02-02 06:26:00,
2013-02-02 01:31:00,44.9,35.3,30.23,NE,45,0.0,0.0,69,0.00,,,0.00,WUHU216HW,2013-02-02 06:31:00,
2013-02-02 01:36:00,44.9,35.7,30.24,NE,45,0.0,0.0,70,0.00,,,0.00,WUHU216HW,2013-02-02 06:36:00,
2013-02-02 01:41:00,44.9,35.7,30.24,NE,45,0.0,0.0,70,0.00,,,0.00,WUHU216HW,2013-02-02 06:41:00,
2013-02-02 01:46:00,44.9,35.7,30.23,NE,45,0.0,0.0,70,0.00,,,0.00,WUHU216HW,2013-02-02 06:46:00,
2013-02-02 01:51:00,45.1,35.9,30.23,NE,45,0.0,0.0,70,0.00,,,0.00,WUHU216HW,2013-02-02 06:51:00,
2013-02-02 01:56:00,45.1,36.3,30.23,NE,45,0.0,0.0,71,0.00,,,0.00,WUHU216HW,2013-02-02 06:56:00,
2013-02-02 02:01:00,45.1,36.3,30.23,NE,45,0.0,1.3,71,0.00,,,0.00,WUHU216HW,2013-02-02 07:01:00,
2013-02-02 02:06:00,45.1,36.6,30.23,NE,45,1.5,1.5,72,0.00,,,0.00,WUHU216HW,2013-02-02 07:06:00,
2013-02-02 02:11:00,45.3,37.1,30.23,NE,45,0.0,1.5,73,0.00,,,0.00,WUHU216HW,2013-02-02 07:11:00,
2013-02-02 02:16:00,45.6,37.5,30.23,NE,45,0.0,1.3,73,0.00,,,0.00,WUHU216HW,2013-02-02 07:16:00,
2013-02-02 02:21:00,45.6,37.8,30.23,NE,45,0.0,1.3,74,0.00,,,0.00,WUHU216HW,2013-02-02 07:21:00,
2013-02-02 02:26:00,46.0,38.5,30.22,NE,45,0.0,1.1,75,0.00,,,0.00,WUHU216HW,2013-02-02 07:26:00,
2013-02-02 02:31:00,46.2,38.7,30.22,NE,45,0.8,1.5,75,0.00,,,0.00,WUHU216HW,2013-02-02 07:31:00,
2013-02-02 02:36:00,46.2,38.7,30.22,NE,45,0.0,1.7,75,0.00,,,0.00,WUHU216HW,2013-02-02 07:36:00,
2013-02-02 02:41:00,46.2,38.7,30.22,NE,45,0.0,1.7,75,0.00,,,0.00,WUHU216HW,2013-02-02 07:41:00,
2013-02-02 02:46:00,46.2,38.7,30.22,NE,45,0.0,0.0,75,0.00,,,0.00,WUHU216HW,2013-02-02 07:46:00,
2013-02-02 02:51:00,46.2,38.7,30.22,NE,45,0.0,0.0,75,0.00,,,0.00,WUHU216HW,2013-02-02 07:51:00,
2013-02-02 02:56:00,46.2,38.7,30.22,NE,45,0.0,0.0,75,0.00,,,0.00,WUHU216HW,2013-02-02 07:56:00,
2013-02-02 03:01:00,46.2,38.7,30.22,NE,45,0.0,0.0,75,0.00,,,0.00,WUHU216HW,2013-02-02 08:01:00,
2013-02-02 03:06:00,46.2,38.7,30.22,NE,45,0.0,0.0,75,0.00,,,0.00,WUHU216HW,2013-02-02 08:06:00,
2013-02-02 03:11:00,46.0,38.5,30.22,NE,45,0.0,0.0,75,0.00,,,0.00,WUHU216HW,2013-02-02 08:11:00,
2013-02-02 03:16:00,45.8,38.0,30.22,NE,45,0.0,0.0,74,0.00,,,0.00,WUHU216HW,2013-02-02 08:16:00,
2013-02-02 03:21:00,45.6,37.8,30.22,NE,45,0.0,0.0,74,0.00,,,0.00,WUHU216HW,2013-02-02 08:21:00,
2013-02-02 03:26:00,45.6,37.8,30.22,NE,45,0.0,0.0,74,0.00,,,0.00,WUHU216HW,2013-02-02 08:26:00,
2013-02-02 03:31:00,45.6,37.8,30.22,NE,45,0.0,0.0,74,0.00,,,0.00,WUHU216HW,2013-02-02 08:31:00,
2013-02-02 03:36:00,45.6,38.2,30.22,NE,45,0.0,0.0,75,0.00,,,0.00,WUHU216HW,2013-02-02 08:36:00,
2013-02-02 03:41:00,45.6,37.8,30.22,NE,45,0.0,0.0,74,0.00,,,0.00,WUHU216HW,2013-02-02 08:41:00,
2013-02-02 03:46:00,45.5,37.6,30.22,NE,45,0.0,0.0,74,0.00,,,0.00,WUHU216HW,2013-02-02 08:46:00,
2013-02-02 03:51:00,45.3,37.1,30.22,NE,45,0.0,0.0,73,0.00,,,0.00,WUHU216HW,2013-02-02 08:51:00,
2013-02-02 03:56:00,45.1,36.9,30.22,NE,45,0.0,0.0,73,0.00,,,0.00,WUHU216HW,2013-02-02 08:56:00,
2013-02-02 04:01:00,44.9,36.8,30.22,NE,45,0.0,0.0,73,0.00,,,0.00,WUHU216HW,2013-02-02 09:01:00,
2013-02-02 04:06:00,44.9,36.8,30.22,NE,45,0.0,0.0,73,0.00,,,0.00,WUHU216HW,2013-02-02 09:06:00,
2013-02-02 04:11:00,44.7,36.6,30.22,NE,45,0.0,0.0,73,0.00,,,0.00,WUHU216HW,2013-02-02 09:11:00,
2013-02-02 04:16:00,44.6,36.4,30.22,NE,45,0.0,0.0,73,0.00,,,0.00,WUHU216HW,2013-02-02 09:16:00,
2013-02-02 04:21:00,44.4,36.2,30.22,NE,45,0.0,0.0,73,0.00,,,0.00,WUHU216HW,2013-02-02 09:21:00,
2013-02-02 04:26:00,44.4,36.2,30.22,NE,45,0.0,0.0,73,0.00,,,0.00,WUHU216HW,2013-02-02 09:26:00,
2013-02-02 04:31:00,44.4,36.6,30.22,NE,45,0.0,0.0,74,0.00,,,0.00,WUHU216HW,2013-02-02 09:31:00,
2013-02-02 04:36:00,44.4,36.6,30.22,NE,45,0.0,0.0,74,0.00,,,0.00,WUHU216HW,2013-02-02 09:36:00,
2013-02-02 04:41:00,44.4,36.6,30.22,NE,45,0.0,0.0,74,0.00,,,0.00,WUHU216HW,2013-02-02 09:41:00,
2013-02-02 04:46:00,44.4,36.6,30.22,NE,45,0.0,0.0,74,0.00,,,0.00,WUHU216HW,2013-02-02 09:46:00,
2013-02-02 04:51:00,44.2,36.4,30.22,NE,45,0.0,0.0,74,0.00,,,0.00,WUHU216HW,2013-02-02 09:51:00,
2013-02-02 04:56:00,44.2,36.4,30.22,NE,45,0.0,0.0,74,0.00,,,0.00,WUHU216HW,2013-02-02 09:56:00,
2013-02-02 05:01:00,43.8,36.1,30.22,NE,45,0.0,0.0,74,0.00,,,0.00,WUHU216HW,2013-02-02 10:01:00,
2013-02-02 05:06:00,43.7,35.9,30.22,NE,45,0.0,0.0,74,0.00,,,0.00,WUHU216HW,2013-02-02 10:06:00,
2013-02-02 05:11:00,43.5,35.7,30.22,NE,45,0.0,0.0,74,0.00,,,0.00,WUHU216HW,2013-02-02 10:11:00,
2013-02-02 05:16:00,43.5,35.7,30.22,NE,45,0.0,0.0,74,0.00,,,0.00,WUHU216HW,2013-02-02 10:16:00,
2013-02-02 05:21:00,43.5,35.7,30.22,NE,45,0.0,0.0,74,0.00,,,0.00,WUHU216HW,2013-02-02 10:21:00,
2013-02-02 05:26:00,43.3,35.6,30.22,NE,45,0.0,0.0,74,0.00,,,0.00,WUHU216HW,2013-02-02 10:26:00,
2013-02-02 05:31:00,43.3,35.9,30.22,NE,45,0.0,0.0,75,0.00,,,0.00,WUHU216HW,2013-02-02 10:31:00,
2013-02-02 05:36:00,43.3,35.9,30.22,NE,45,0.0,0.0,75,0.00,,,0.00,WUHU216HW,2013-02-02 10:36:00,
2013-02-02 05:41:00,43.3,35.9,30.22,NE,45,0.0,0.0,75,0.00,,,0.00,WUHU216HW,2013-02-02 10:41:00,
2013-02-02 05:46:00,43.3,35.9,30.22,NE,45,0.0,0.0,75,0.00,,,0.00,WUHU216HW,2013-02-02 10:46:00,
2013-02-02 05:51:00,43.3,36.2,30.22,NE,45,0.0,0.0,76,0.00,,,0.00,WUHU216HW,2013-02-02 10:51:00,
2013-02-02 05:56:00,43.3,36.2,30.22,NE,45,0.0,1.7,76,0.00,,,0.00,WUHU216HW,2013-02-02 10:56:00,
2013-02-02 06:01:00,43.5,36.4,30.22,NE,45,0.0,1.7,76,0.00,,,0.00,WUHU216HW,2013-02-02 11:01:00,
2013-02-02 06:06:00,43.5,36.7,30.23,NE,45,0.8,1.3,77,0.00,,,0.00,WUHU216HW,2013-02-02 11:06:00,
2013-02-02 06:11:00,43.8,37.1,30.23,NE,45,0.0,0.8,77,0.00,,,0.00,WUHU216HW,2013-02-02 11:11:00,
2013-02-02 06:16:00,44.0,37.2,30.22,NE,45,0.0,0.8,77,0.00,,,0.00,WUHU216HW,2013-02-02 11:16:00,
2013-02-02 06:21:00,44.2,37.4,30.22,NE,45,0.0,0.8,77,0.00,,,0.00,WUHU216HW,2013-02-02 11:21:00,
2013-02-02 06:26:00,44.4,37.6,30.23,NE,45,0.0,0.8,77,0.00,,,0.00,WUHU216HW,2013-02-02 11:26:00,
2013-02-02 06:31:00,44.4,37.6,30.23,NE,45,0.0,0.0,77,0.00,,,0.00,WUHU216HW,2013-02-02 11:31:00,
2013-02-02 06:36:00,44.4,37.6,30.23,NE,45,0.0,2.0,77,0.00,,,0.00,WUHU216HW,2013-02-02 11:36:00,
2013-02-02 06:41:00,44.6,37.8,30.23,NE,45,0.0,2.0,77,0.00,,,0.00,WUHU216HW,2013-02-02 11:41:00,
2013-02-02 06:46:00,44.6,37.4,30.24,NE,45,0.8,1.5,76,0.00,,,0.00,WUHU216HW,2013-02-02 11:46:00,
2013-02-02 06:51:00,44.6,37.4,30.24,NE,45,0.0,2.2,76,0.00,,,0.00,WUHU216HW,2013-02-02 11:51:00,
2013-02-02 06:56:00,44.7,37.6,30.24,NE,45,0.0,2.2,76,0.00,,,0.00,WUHU216HW,2013-02-02 11:56:00,
2013-02-02 07:01:00,44.7,37.6,30.24,NE,45,0.0,1.1,76,0.00,,,0.00,WUHU216HW,2013-02-02 12:01:00,
2013-02-02 07:06:00,44.6,37.4,30.24,NE,45,0.0,0.0,76,0.00,,,0.00,WUHU216HW,2013-02-02 12:06:00,
2013-02-02 07:11:00,44.4,37.2,30.24,NE,45,0.0,0.0,76,0.00,,,0.00,WUHU216HW,2013-02-02 12:11:00,
2013-02-02 07:16:00,44.4,37.2,30.25,NE,45,0.0,0.0,76,0.00,,,0.00,WUHU216HW,2013-02-02 12:16:00,
2013-02-02 07:21:00,44.4,37.2,30.25,NE,45,0.0,1.3,76,0.00,,,0.00,WUHU216HW,2013-02-02 12:21:00,
2013-02-02 07:26:00,44.4,37.6,30.24,NE,45,2.6,2.6,77,0.00,,,0.00,WUHU216HW,2013-02-02 12:26:00,
2013-02-02 07:31:00,44.6,37.8,30.25,NE,45,1.3,3.5,77,0.00,,,0.00,WUHU216HW,2013-02-02 12:31:00,
2013-02-02 07:36:00,44.7,37.9,30.25,NE,45,0.0,3.5,77,0.00,,,0.00,WUHU216HW,2013-02-02 12:36:00,
2013-02-02 07:41:00,45.1,38.3,30.24,NE,45,0.0,1.5,77,0.00,,,0.00,WUHU216HW,2013-02-02 12:41:00,
2013-02-02 07:46:00,45.3,38.8,30.24,NE,45,0.0,1.7,78,0.00,,,0.00,WUHU216HW,2013-02-02 12:46:00,
2013-02-02 07:51:00,45.6,39.2,30.24,NE,45,0.0,2.9,78,0.00,,,0.00,WUHU216HW,2013-02-02 12:51:00,
2013-02-02 07:56:00,46.2,39.7,30.25,NE,45,2.6,2.9,78,0.00,,,0.00,WUHU216HW,2013-02-02 12:56:00,
2013-02-02 08:01:00,46.4,39.9,30.25,NE,45,0.6,2.6,78,0.00,,,0.00,WUHU216HW,2013-02-02 13:01:00,
2013-02-02 08:06:00,46.7,40.2,30.25,NE,45,0.6,1.1,78,0.00,,,0.00,WUHU216HW,2013-02-02 13:06:00,
2013-02-02 08:11:00,47.1,40.2,30.25,NE,45,0.0,1.5,77,0.00,,,0.00,WUHU216HW,2013-02-02 13:11:00,
2013-02-02 08:16:00,47.4,40.5,30.25,NE,45,2.0,2.0,77,0.00,,,0.00,WUHU216HW,2013-02-02 13:16:00,
2013-02-02 08:23:00,48.0,41.0,30.25,NE,45,3.3,3.3,77,0.00,,,0.00,WUHU216HW,2013-02-02 13:23:00,
2013-02-02 08:28:00,48.7,41.7,30.25,NE,45,1.3,5.5,77,0.00,,,0.00,WUHU216HW,2013-02-02 13:28:00,
2013-02-02 08:33:00,49.1,41.7,30.25,NE,45,2.4,5.5,76,0.00,,,0.00,WUHU216HW,2013-02-02 13:33:00,
2013-02-02 08:38:00,49.6,41.9,30.25,NE,45,2.9,3.3,75,0.00,,,0.00,WUHU216HW,2013-02-02 13:38:00,
2013-02-02 08:43:00,49.6,41.9,30.25,NE,45,0.0,4.4,75,0.00,,,0.00,WUHU216HW,2013-02-02 13:43:00,
2013-02-02 08:48:00,50.1,42.5,30.25,NE,45,1.5,6.0,75,0.00,,,0.00,WUHU216HW,2013-02-02 13:48:00,
2013-02-02 08:53:00,50.7,42.7,30.25,NE,45,0.6,8.5,74,0.00,,,0.00,WUHU216HW,2013-02-02 13:53:00,
2013-02-02 08:58:00,51.2,43.2,30.25,NE,45,2.6,8.5,74,0.00,,,0.00,WUHU216HW,2013-02-02 13:58:00,
2013-02-02 09:03:00,51.6,43.2,30.25,NE,45,0.0,5.1,73,0.00,,,0.00,WUHU216HW,2013-02-02 14:03:00,
2013-02-02 09:08:00,51.9,43.6,30.25,NE,45,2.9,6.7,73,0.00,,,0.00,WUHU216HW,2013-02-02 14:08:00,
2013-02-02 09:13:00,52.3,43.6,30.25,NE,45,3.3,6.7,72,0.00,,,0.00,WUHU216HW,2013-02-02 14:13:00,
2013-02-02 09:18:00,52.8,44.1,30.25,NE,45,6.4,6.4,71,0.00,,,0.00,WUHU216HW,2013-02-02 14:18:00,
2013-02-02 09:23:00,53.4,44.2,30.25,NE,45,4.0,6.4,71,0.00,,,0.00,WUHU216HW,2013-02-02 14:23:00,
2013-02-02 09:28:00,53.7,44.5,30.25,ENE,68,3.8,5.5,71,0.00,,,0.00,WUHU216HW,2013-02-02 14:28:00,
2013-02-02 09:33:00,54.1,44.9,30.25,ENE,68,6.7,6.7,71,0.00,,,0.00,WUHU216HW,2013-02-02 14:33:00,
2013-02-02 09:38:00,54.6,45.4,30.25,ENE,68,5.1,6.7,71,0.00,,,0.00,WUHU216HW,2013-02-02 14:38:00,
2013-02-02 09:43:00,55.0,45.5,30.25,ENE,68,5.3,6.0,70,0.00,,,0.00,WUHU216HW,2013-02-02 14:43:00,
2013-02-02 09:48:00,55.2,45.6,30.25,NNE,23,4.0,6.4,70,0.00,,,0.00,WUHU216HW,2013-02-02 14:48:00,
2013-02-02 09:53:00,55.7,46.1,30.25,ENE,68,5.3,6.4,70,0.00,,,0.00,WUHU216HW,2013-02-02 14:53:00,
2013-02-02 09:58:00,56.1,46.5,30.26,ENE,68,1.7,6.4,70,0.00,,,0.00,WUHU216HW,2013-02-02 14:58:00,
2013-02-02 10:03:00,56.6,46.5,30.25,ENE,68,0.0,6.4,69,0.00,,,0.00,WUHU216HW,2013-02-02 15:03:00,
2013-02-02 10:08:00,57.3,46.4,30.25,NNE,23,3.8,5.3,67,0.00,,,0.00,WUHU216HW,2013-02-02 15:08:00,
2013-02-02 10:13:00,57.7,47.3,30.25,ENE,68,2.9,5.3,68,0.00,,,0.00,WUHU216HW,2013-02-02 15:13:00,
2013-02-02 10:18:00,58.2,47.3,30.25,NE,45,3.3,6.4,67,0.00,,,0.00,WUHU216HW,2013-02-02 15:18:00,
2013-02-02 10:23:00,58.8,47.4,30.25,NE,45,9.1,9.1,66,0.00,,,0.00,WUHU216HW,2013-02-02 15:23:00,
2013-02-02 10:28:00,59.1,47.3,30.24,NE,45,0.6,9.1,65,0.00,,,0.00,WUHU216HW,2013-02-02 15:28:00,
2013-02-02 10:33:00,59.7,47.9,30.24,ENE,68,4.0,4.2,65,0.00,,,0.00,WUHU216HW,2013-02-02 15:33:00,
2013-02-02 10:38:00,60.0,48.2,30.24,ENE,68,1.5,5.8,65,0.00,,,0.00,WUHU216HW,2013-02-02 15:38:00,
2013-02-02 10:43:00,60.6,47.1,30.24,North,0,0.0,6.2,61,0.00,,,0.00,WUHU216HW,2013-02-02 15:43:00,
2013-02-02 10:48:00,61.1,48.0,30.24,ENE,68,1.7,6.2,62,0.00,,,0.00,WUHU216HW,2013-02-02 15:48:00,
2013-02-02 10:53:00,61.5,48.4,30.23,NE,45,0.0,4.2,62,0.00,,,0.00,WUHU216HW,2013-02-02 15:53:00,
2013-02-02 10:58:00,61.8,46.9,30.23,NNE,23,3.5,4.4,58,0.00,,,0.00,WUHU216HW,2013-02-02 15:58:00,
2013-02-02 11:03:00,62.2,46.2,30.22,East,90,2.2,4.4,56,0.00,,,0.00,WUHU216HW,2013-02-02 16:03:00,
2013-02-02 11:08:00,62.7,48.2,30.22,ENE,68,4.2,4.2,59,0.00,,,0.00,WUHU216HW,2013-02-02 16:08:00,
2013-02-02 11:13:00,63.3,47.7,30.22,ENE,68,4.4,4.4,57,0.00,,,0.00,WUHU216HW,2013-02-02 16:13:00,
2013-02-02 11:18:00,63.6,48.0,30.22,ENE,68,5.1,5.1,57,0.00,,,0.00,WUHU216HW,2013-02-02 16:18:00,
2013-02-02 11:23:00,64.2,49.0,30.22,ENE,68,4.2,6.0,58,0.00,,,0.00,WUHU216HW,2013-02-02 16:23:00,
2013-02-02 11:28:00,64.7,49.3,30.22,ENE,68,0.8,6.0,58,0.00,,,0.00,WUHU216HW,2013-02-02 16:28:00,
2013-02-02 11:33:00,65.1,49.4,30.22,ENE,68,0.0,4.2,57,0.00,,,0.00,WUHU216HW,2013-02-02 16:33:00,
2013-02-02 11:38:00,65.6,50.4,30.21,ENE,68,0.0,5.3,57,0.00,,,0.00,WUHU216HW,2013-02-02 16:38:00,
2013-02-02 11:43:00,66.0,50.3,30.21,ENE,68,1.5,6.2,57,0.00,,,0.00,WUHU216HW,2013-02-02 16:43:00,
2013-02-02 11:48:00,66.5,50.8,30.21,ENE,68,0.0,6.2,57,0.00,,,0.00,WUHU216HW,2013-02-02 16:48:00,
2013-02-02 11:53:00,66.7,50.5,30.21,NE,45,2.6,6.4,56,0.00,,,0.00,WUHU216HW,2013-02-02 16:53:00,
2013-02-02 11:58:00,66.9,50.6,30.20,East,90,3.5,6.4,56,0.00,,,0.00,WUHU216HW,2013-02-02 16:58:00,
2013-02-02 12:03:00,67.2,51.4,30.20,ENE,68,0.8,6.4,57,0.00,,,0.00,WUHU216HW,2013-02-02 17:03:00,
2013-02-02 12:08:00,67.8,51.9,30.20,ENE,68,0.8,5.3,57,0.00,,,0.00,WUHU216HW,2013-02-02 17:08:00,
2013-02-02 12:13:00,68.1,52.3,30.20,ENE,68,0.0,5.3,57,0.00,,,0.00,WUHU216HW,2013-02-02 17:13:00,
2013-02-02 12:18:00,68.1,51.3,30.20,East,90,0.0,4.2,55,0.00,,,0.00,WUHU216HW,2013-02-02 17:18:00,
2013-02-02 12:23:00,68.5,51.0,30.20,NE,45,2.2,4.0,55,0.00,,,0.00,WUHU216HW,2013-02-02 17:23:00,
2013-02-02 12:28:00,68.1,50.8,30.19,ENE,68,2.6,4.6,54,0.00,,,0.00,WUHU216HW,2013-02-02 17:28:00,
2013-02-02 12:33:00,68.5,51.1,30.19,South,180,0.0,4.6,54,0.00,,,0.00,WUHU216HW,2013-02-02 17:33:00,
2013-02-02 12:38:00,68.7,52.3,30.19,ENE,68,0.6,4.0,56,0.00,,,0.00,WUHU216HW,2013-02-02 17:38:00,
2013-02-02 12:43:00,69.4,52.5,30.18,ENE,68,0.0,5.5,55,0.00,,,0.00,WUHU216HW,2013-02-02 17:43:00,
2013-02-02 12:48:00,69.0,51.6,30.18,ENE,68,0.0,5.5,54,0.00,,,0.00,WUHU216HW,2013-02-02 17:48:00,
2013-02-02 12:53:00,69.9,53.0,30.18,ENE,68,6.4,6.4,55,0.00,,,0.00,WUHU216HW,2013-02-02 17:53:00,
2013-02-02 12:58:00,70.1,53.2,30.17,SE,135,0.0,6.4,54,0.00,,,0.00,WUHU216HW,2013-02-02 17:58:00,
2013-02-02 13:03:00,70.3,52.8,30.17,NE,45,7.6,7.6,54,0.00,,,0.00,WUHU216HW,2013-02-02 18:03:00,
2013-02-02 13:08:00,70.5,53.0,30.17,North,0,0.0,7.6,54,0.00,,,0.00,WUHU216HW,2013-02-02 18:08:00,
2013-02-02 13:13:00,70.8,53.3,30.17,East,90,0.0,6.9,54,0.00,,,0.00,WUHU216HW,2013-02-02 18:13:00,
2013-02-02 13:18:00,71.4,54.3,30.16,ESE,113,1.1,6.7,54,0.00,,,0.00,WUHU216HW,2013-02-02 18:18:00,
2013-02-02 13:23:00,71.7,53.6,30.16,ENE,68,3.8,6.9,53,0.00,,,0.00,WUHU216HW,2013-02-02 18:23:00,
2013-02-02 13:28:00,71.4,52.8,30.16,ENE,68,4.2,6.9,52,0.00,,,0.00,WUHU216HW,2013-02-02 18:28:00,
2013-02-02 13:33:00,71.7,53.6,30.15,SE,135,0.6,5.5,53,0.00,,,0.00,WUHU216HW,2013-02-02 18:33:00,
2013-02-02 13:38:00,72.1,53.9,30.15,SE,135,0.0,5.3,53,0.00,,,0.00,WUHU216HW,2013-02-02 18:38:00,
2013-02-02 13:43:00,72.3,53.6,30.15,SE,135,0.8,5.3,52,0.00,,,0.00,WUHU216HW,2013-02-02 18:43:00,
2013-02-02 13:48:00,72.6,53.9,30.15,East,90,0.0,5.3,52,0.00,,,0.00,WUHU216HW,2013-02-02 18:48:00,
2013-02-02 13:53:00,72.6,53.9,30.15,ENE,68,4.0,6.2,52,0.00,,,0.00,WUHU216HW,2013-02-02 18:53:00,
2013-02-02 13:58:00,73.4,54.4,30.15,NE,45,3.5,6.2,52,0.00,,,0.00,WUHU216HW,2013-02-02 18:58:00,
2013-02-02 14:03:00,73.2,53.4,30.15,ESE,113,0.0,3.5,50,0.00,,,0.00,WUHU216HW,2013-02-02 19:03:00,
2013-02-02 14:08:00,72.5,52.1,30.15,East,90,1.3,4.0,49,0.00,,,0.00,WUHU216HW,2013-02-02 19:08:00,
2013-02-02 14:13:00,71.9,51.7,30.14,East,90,0.0,4.0,49,0.00,,,0.00,WUHU216HW,2013-02-02 19:13:00,
2013-02-02 14:18:00,71.4,51.8,30.14,East,90,0.0,2.4,50,0.00,,,0.00,WUHU216HW,2013-02-02 19:18:00,
2013-02-02 14:23:00,70.8,51.1,30.14,East,90,0.0,2.4,50,0.00,,,0.00,WUHU216HW,2013-02-02 19:23:00,
2013-02-02 14:28:00,70.3,50.2,30.13,East,90,0.0,1.3,49,0.00,,,0.00,WUHU216HW,2013-02-02 19:28:00,
2013-02-02 14:33:00,69.9,51.0,30.14,East,90,0.0,1.1,51,0.00,,,0.00,WUHU216HW,2013-02-02 19:33:00,
2013-02-02 14:38:00,69.6,50.1,30.13,East,90,0.0,1.1,50,0.00,,,0.00,WUHU216HW,2013-02-02 19:38:00,
2013-02-02 14:43:00,69.8,51.0,30.13,SE,135,5.5,5.5,51,0.00,,,0.00,WUHU216HW,2013-02-02 19:43:00,
2013-02-02 14:48:00,69.9,50.5,30.13,SE,135,0.0,5.5,50,0.00,,,0.00,WUHU216HW,2013-02-02 19:48:00,
2013-02-02 14:53:00,70.1,51.1,30.13,SE,135,0.0,0.8,51,0.00,,,0.00,WUHU216HW,2013-02-02 19:53:00,
2013-02-02 14:58:00,70.3,51.3,30.13,SE,135,0.0,0.0,51,0.00,,,0.00,WUHU216HW,2013-02-02 19:58:00,
2013-02-02 15:03:00,70.3,51.3,30.12,North,0,0.0,0.0,51,0.00,,,0.00,WUHU216HW,2013-02-02 20:03:00,
2013-02-02 15:08:00,69.9,51.0,30.12,SE,135,1.3,1.3,51,0.00,,,0.00,WUHU216HW,2013-02-02 20:08:00,
2013-02-02 15:13:00,69.8,50.3,30.12,SE,135,0.0,1.3,50,0.00,,,0.00,WUHU216HW,2013-02-02 20:13:00,
2013-02-02 15:18:00,69.9,51.1,30.12,SE,135,0.0,2.6,51,0.00,,,0.00,WUHU216HW,2013-02-02 20:18:00,
2013-02-02 15:23:00,70.7,52.1,30.12,SE,135,0.0,2.6,52,0.00,,,0.00,WUHU216HW,2013-02-02 20:23:00,
2013-02-02 15:28:00,71.7,53.1,30.12,ENE,68,2.9,2.9,52,0.00,,,0.00,WUHU216HW,2013-02-02 20:28:00,
2013-02-02 15:33:00,73.0,53.2,30.11,ENE,68,1.3,5.3,50,0.00,,,0.00,WUHU216HW,2013-02-02 20:33:00,
2013-02-02 15:38:00,73.9,53.5,30.11,ENE,68,3.3,5.3,49,0.00,,,0.00,WUHU216HW,2013-02-02 20:38:00,
2013-02-02 15:43:00,75.0,53.9,30.11,ENE,68,0.0,6.0,48,0.00,,,0.00,WUHU216HW,2013-02-02 20:43:00,
2013-02-02 15:48:00,75.9,54.2,30.11,ENE,68,4.6,6.0,47,0.00,,,0.00,WUHU216HW,2013-02-02 20:48:00,
2013-02-02 15:53:00,76.2,53.9,30.11,ENE,68,2.0,4.6,46,0.00,,,0.00,WUHU216HW,2013-02-02 20:53:00,
2013-02-02 15:58:00,77.0,54.7,30.11,ENE,68,0.0,4.6,46,0.00,,,0.00,WUHU216HW,2013-02-02 20:58:00,
2013-02-02 16:03:00,77.7,54.6,30.11,SE,135,4.2,4.6,45,0.00,,,0.00,WUHU216HW,2013-02-02 21:03:00,
2013-02-02 16:08:00,78.4,54.6,30.11,East,90,0.0,4.2,44,0.00,,,0.00,WUHU216HW,2013-02-02 21:08:00,
2013-02-02 16:13:00,78.6,54.1,30.11,ESE,113,1.5,4.4,43,0.00,,,0.00,WUHU216HW,2013-02-02 21:13:00,
2013-02-02 16:18:00,79.1,54.6,30.11,ESE,113,0.0,4.4,43,0.00,,,0.00,WUHU216HW,2013-02-02 21:18:00,
2013-02-02 16:23:00,79.7,53.9,30.11,NE,45,2.0,2.0,41,0.00,,,0.00,WUHU216HW,2013-02-02 21:23:00,
2013-02-02 16:28:00,79.8,54.1,30.11,NE,45,0.0,6.9,41,0.00,,,0.00,WUHU216HW,2013-02-02 21:28:00,
2013-02-02 16:33:00,80.2,54.4,30.11,ENE,68,0.0,6.9,41,0.00,,,0.00,WUHU216HW,2013-02-02 21:33:00,
2013-02-02 16:38:00,80.2,54.2,30.11,ENE,68,0.0,6.2,41,0.00,,,0.00,WUHU216HW,2013-02-02 21:38:00,
2013-02-02 16:43:00,78.9,52.6,30.11,ENE,68,0.0,6.2,40,0.00,,,0.00,WUHU216HW,2013-02-02 21:43:00,
2013-02-02 16:48:00,77.7,52.1,30.10,ENE,68,0.0,0.0,41,0.00,,,0.00,WUHU216HW,2013-02-02 21:48:00,
2013-02-02 16:53:00,76.2,52.0,30.11,ENE,68,0.0,0.0,42,0.00,,,0.00,WUHU216HW,2013-02-02 21:53:00,
2013-02-02 16:58:00,75.5,51.2,30.11,ENE,68,0.0,0.0,43,0.00,,,0.00,WUHU216HW,2013-02-02 21:58:00,
2013-02-02 17:03:00,75.0,51.5,30.11,ENE,68,0.0,0.0,44,0.00,,,0.00,WUHU216HW,2013-02-02 22:03:00,
2013-02-02 17:08:00,75.0,51.5,30.11,ENE,68,0.0,0.0,44,0.00,,,0.00,WUHU216HW,2013-02-02 22:08:00,
2013-02-02 17:13:00,75.3,51.4,30.11,ENE,68,0.0,0.0,43,0.00,,,0.00,WUHU216HW,2013-02-02 22:13:00,
2013-02-02 17:18:00,75.3,51.2,30.11,ENE,68,0.0,0.0,43,0.00,,,0.00,WUHU216HW,2013-02-02 22:18:00,
2013-02-02 17:23:00,74.8,51.3,30.10,ENE,68,0.0,0.0,44,0.00,,,0.00,WUHU216HW,2013-02-02 22:23:00,
2013-02-02 17:28:00,73.9,51.3,30.11,ENE,68,0.0,0.0,45,0.00,,,0.00,WUHU216HW,2013-02-02 22:28:00,
2013-02-02 17:33:00,73.2,51.0,30.11,ENE,68,0.0,0.0,46,0.00,,,0.00,WUHU216HW,2013-02-02 22:33:00,
2013-02-02 17:38:00,72.3,50.2,30.11,ENE,68,0.0,0.0,46,0.00,,,0.00,WUHU216HW,2013-02-02 22:38:00,
2013-02-02 17:45:00,71.6,50.1,30.11,ENE,68,0.0,0.0,47,0.00,,,0.00,WUHU216HW,2013-02-02 22:45:00,
2013-02-02 17:50:00,70.8,50.7,30.11,ENE,68,0.0,0.0,49,0.00,,,0.00,WUHU216HW,2013-02-02 22:50:00,
2013-02-02 17:55:00,70.1,50.6,30.11,ENE,68,0.0,0.0,50,0.00,,,0.00,WUHU216HW,2013-02-02 22:55:00,
2013-02-02 18:00:00,69.6,50.6,30.11,ENE,68,0.0,0.0,51,0.00,,,0.00,WUHU216HW,2013-02-02 23:00:00,
2013-02-02 18:05:00,68.9,50.5,30.11,ENE,68,0.0,0.0,52,0.00,,,0.00,WUHU216HW,2013-02-02 23:05:00,
2013-02-02 18:10:00,68.1,50.3,30.11,ENE,68,0.0,0.0,53,0.00,,,0.00,WUHU216HW,2013-02-02 23:10:00,
2013-02-02 18:15:00,67.6,50.3,30.11,ENE,68,0.0,0.0,54,0.00,,,0.00,WUHU216HW,2013-02-02 23:15:00,
2013-02-02 18:20:00,66.9,50.0,30.11,ENE,68,0.0,0.0,55,0.00,,,0.00,WUHU216HW,2013-02-02 23:20:00,
2013-02-02 18:25:00,66.0,49.5,30.11,ENE,68,0.0,0.0,55,0.00,,,0.00,WUHU216HW,2013-02-02 23:25:00,
2013-02-02 18:30:00,65.6,49.4,30.12,ENE,68,0.0,0.0,56,0.00,,,0.00,WUHU216HW,2013-02-02 23:30:00,
2013-02-02 18:35:00,65.1,49.4,30.12,ENE,68,0.0,0.0,57,0.00,,,0.00,WUHU216HW,2013-02-02 23:35:00,
2013-02-02 18:40:00,64.5,49.3,30.12,ENE,68,0.0,0.0,58,0.00,,,0.00,WUHU216HW,2013-02-02 23:40:00,
2013-02-02 18:45:00,64.0,48.8,30.12,ENE,68,0.0,0.0,58,0.00,,,0.00,WUHU216HW,2013-02-02 23:45:00,
2013-02-02 18:50:00,63.6,48.5,30.12,ENE,68,0.0,0.0,58,0.00,,,0.00,WUHU216HW,2013-02-02 23:50:00,
2013-02-02 18:55:00,63.3,48.7,30.12,ENE,68,0.0,0.0,59,0.00,,,0.00,WUHU216HW,2013-02-02 23:55:00,
2013-02-02 19:00:00,62.9,48.3,30.12,ENE,68,0.0,0.0,59,0.00,,,0.00,WUHU216HW,2013-02-03 00:00:00,
2013-02-02 19:05:00,62.7,48.7,30.12,ENE,68,0.0,0.0,60,0.00,,,0.00,WUHU216HW,2013-02-03 00:05:00,
2013-02-02 19:10:00,62.4,48.3,30.12,ENE,68,0.0,0.0,60,0.00,,,0.00,WUHU216HW,2013-02-03 00:10:00,
2013-02-02 19:15:00,61.8,48.3,30.12,ENE,68,0.0,0.0,61,0.00,,,0.00,WUHU216HW,2013-02-03 00:15:00,
2013-02-02 19:20:00,61.5,48.4,30.13,ENE,68,0.0,0.0,62,0.00,,,0.00,WUHU216HW,2013-02-03 00:20:00,
2013-02-02 19:25:00,61.1,48.0,30.13,ENE,68,0.0,0.0,62,0.00,,,0.00,WUHU216HW,2013-02-03 00:25:00,
2013-02-02 19:30:00,60.8,47.9,30.13,ENE,68,0.0,0.0,62,0.00,,,0.00,WUHU216HW,2013-02-03 00:30:00,
2013-02-02 19:35:00,60.6,47.8,30.13,ENE,68,0.0,0.0,63,0.00,,,0.00,WUHU216HW,2013-02-03 00:35:00,
2013-02-02 19:40:00,60.0,47.8,30.13,ENE,68,0.0,0.0,63,0.00,,,0.00,WUHU216HW,2013-02-03 00:40:00,
2013-02-02 19:45:00,59.9,47.2,30.13,ENE,68,0.0,0.0,63,0.00,,,0.00,WUHU216HW,2013-02-03 00:45:00,
2013-02-02 19:50:00,59.7,47.5,30.13,ENE,68,0.0,0.0,64,0.00,,,0.00,WUHU216HW,2013-02-03 00:50:00,
2013-02-02 19:55:00,59.5,47.3,30.13,ENE,68,0.0,0.0,64,0.00,,,0.00,WUHU216HW,2013-02-03 00:55:00,
2013-02-02 20:00:00,59.5,47.7,30.13,ENE,68,0.0,0.0,65,0.00,,,0.00,WUHU216HW,2013-02-03 01:00:00,
2013-02-02 20:05:00,59.3,47.5,30.13,ENE,68,0.0,0.0,65,0.00,,,0.00,WUHU216HW,2013-02-03 01:05:00,
2013-02-02 20:10:00,59.1,47.2,30.13,ENE,68,0.0,0.0,65,0.00,,,0.00,WUHU216HW,2013-02-03 01:10:00,
2013-02-02 20:15:00,58.8,47.0,30.13,ENE,68,0.0,0.0,65,0.00,,,0.00,WUHU216HW,2013-02-03 01:15:00,
2013-02-02 20:20:00,58.8,47.4,30.14,ENE,68,0.0,0.0,66,0.00,,,0.00,WUHU216HW,2013-02-03 01:20:00,
2013-02-02 20:25:00,58.8,47.4,30.13,ENE,68,0.0,0.0,66,0.00,,,0.00,WUHU216HW,2013-02-03 01:25:00,
2013-02-02 20:30:00,59.1,47.8,30.13,ENE,68,0.0,0.0,66,0.00,,,0.00,WUHU216HW,2013-02-03 01:30:00,
2013-02-02 20:35:00,59.3,48.3,30.13,ENE,68,0.0,0.0,67,0.00,,,0.00,WUHU216HW,2013-02-03 01:35:00,
2013-02-02 20:40:00,59.5,48.5,30.14,ENE,68,0.0,0.0,67,0.00,,,0.00,WUHU216HW,2013-02-03 01:40:00,
2013-02-02 20:45:00,59.5,48.5,30.14,ENE,68,0.0,0.0,67,0.00,,,0.00,WUHU216HW,2013-02-03 01:45:00,
2013-02-02 20:50:00,59.5,48.5,30.14,ENE,68,0.0,0.0,67,0.00,,,0.00,WUHU216HW,2013-02-03 01:50:00,
2013-02-02 20:55:00,58.8,47.8,30.14,ENE,68,0.0,2.6,67,0.00,,,0.00,WUHU216HW,2013-02-03 01:55:00,
2013-02-02 21:00:00,58.8,47.8,30.14,ENE,68,1.7,2.6,67,0.00,,,0.00,WUHU216HW,2013-02-03 02:00:00,
2013-02-02 21:05:00,58.8,48.5,30.14,ENE,68,1.7,1.7,69,0.00,,,0.00,WUHU216HW,2013-02-03 02:05:00,
2013-02-02 21:10:00,58.8,48.6,30.15,ENE,68,0.0,1.7,69,0.00,,,0.00,WUHU216HW,2013-02-03 02:10:00,
2013-02-02 21:15:00,58.8,48.6,30.14,ENE,68,0.0,0.0,69,0.00,,,0.00,WUHU216HW,2013-02-03 02:15:00,
2013-02-02 21:20:00,58.6,48.5,30.14,ENE,68,0.0,0.0,69,0.00,,,0.00,WUHU216HW,2013-02-03 02:20:00,
2013-02-02 21:25:00,58.2,48.1,30.14,ENE,68,0.0,0.0,69,0.00,,,0.00,WUHU216HW,2013-02-03 02:25:00,
2013-02-02 21:30:00,58.1,47.9,30.14,ENE,68,0.0,0.0,69,0.00,,,0.00,WUHU216HW,2013-02-03 02:30:00,
2013-02-02 21:35:00,57.7,47.6,30.14,ENE,68,0.0,0.0,69,0.00,,,0.00,WUHU216HW,2013-02-03 02:35:00,
2013-02-02 21:40:00,57.3,47.2,30.14,ENE,68,0.0,0.0,69,0.00,,,0.00,WUHU216HW,2013-02-03 02:40:00,
2013-02-02 21:45:00,57.3,47.2,30.14,ENE,68,0.0,0.0,69,0.00,,,0.00,WUHU216HW,2013-02-03 02:45:00,
2013-02-02 21:50:00,57.0,46.9,30.14,ENE,68,0.0,0.0,69,0.00,,,0.00,WUHU216HW,2013-02-03 02:50:00,
2013-02-02 21:55:00,56.8,46.7,30.13,ENE,68,0.0,0.0,69,0.00,,,0.00,WUHU216HW,2013-02-03 02:55:00,
2013-02-02 22:00:00,56.8,47.1,30.13,ENE,68,0.0,0.0,70,0.00,,,0.00,WUHU216HW,2013-02-03 03:00:00,
2013-02-02 22:05:00,56.4,46.8,30.14,ENE,68,0.0,0.0,70,0.00,,,0.00,WUHU216HW,2013-02-03 03:05:00,
2013-02-02 22:10:00,56.3,46.6,30.13,ENE,68,0.0,0.0,70,0.00,,,0.00,WUHU216HW,2013-02-03 03:10:00,
2013-02-02 22:15:00,56.1,46.5,30.13,ENE,68,0.0,0.0,70,0.00,,,0.00,WUHU216HW,2013-02-03 03:15:00,
2013-02-02 22:20:00,55.9,46.3,30.13,ENE,68,0.0,0.0,70,0.00,,,0.00,WUHU216HW,2013-02-03 03:20:00,
2013-02-02 22:25:00,55.5,46.0,30.13,ENE,68,0.0,0.0,70,0.00,,,0.00,WUHU216HW,2013-02-03 03:25:00,
2013-02-02 22:30:00,55.2,45.6,30.13,ENE,68,0.0,0.0,70,0.00,,,0.00,WUHU216HW,2013-02-03 03:30:00,
2013-02-02 22:35:00,55.0,45.5,30.13,ENE,68,0.0,0.0,70,0.00,,,0.00,WUHU216HW,2013-02-03 03:35:00,
2013-02-02 22:40:00,54.6,45.1,30.13,ENE,68,0.0,0.0,70,0.00,,,0.00,WUHU216HW,2013-02-03 03:40:00,
2013-02-02 22:45:00,54.5,44.9,30.13,ENE,68,0.0,0.0,70,0.00,,,0.00,WUHU216HW,2013-02-03 03:45:00,
2013-02-02 22:50:00,54.3,44.7,30.13,ENE,68,0.0,0.0,70,0.00,,,0.00,WUHU216HW,2013-02-03 03:50:00,
2013-02-02 22:55:00,54.1,44.6,30.13,ENE,68,0.0,0.0,70,0.00,,,0.00,WUHU216HW,2013-02-03 03:55:00,
2013-02-02 23:00:00,54.1,44.6,30.13,ENE,68,0.0,0.0,70,0.00,,,0.00,WUHU216HW,2013-02-03 04:00:00,
2013-02-02 23:05:00,54.1,44.6,30.13,ENE,68,0.0,0.0,70,0.00,,,0.00,WUHU216HW,2013-02-03 04:05:00,
2013-02-02 23:10:00,54.1,44.6,30.12,ENE,68,0.0,0.0,70,0.00,,,0.00,WUHU216HW,2013-02-03 04:10:00,
2013-02-02 23:15:00,54.1,44.1,30.12,ENE,68,0.0,0.0,69,0.00,,,0.00,WUHU216HW,2013-02-03 04:15:00,
2013-02-02 23:20:00,54.3,44.3,30.12,ENE,68,0.0,0.0,69,0.00,,,0.00,WUHU216HW,2013-02-03 04:20:00,
2013-02-02 23:25:00,54.1,44.1,30.12,ENE,68,0.0,0.0,69,0.00,,,0.00,WUHU216HW,2013-02-03 04:25:00,
2013-02-02 23:32:00,54.1,44.1,30.12,ENE,68,0.0,0.0,69,0.00,,,0.00,WUHU216HW,2013-02-03 04:32:00,
2013-02-02 23:37:00,54.1,44.1,30.12,ENE,68,0.0,0.0,69,0.00,,,0.00,WUHU216HW,2013-02-03 04:37:00,
2013-02-02 23:44:00,53.9,44.0,30.12,ENE,68,0.0,0.0,69,0.00,,,0.00,WUHU216HW,2013-02-03 04:44:00,
2013-02-02 23:49:00,53.7,43.8,30.12,ENE,68,0.0,0.0,69,0.00,,,0.00,WUHU216HW,2013-02-03 04:49:00,
2013-02-02 23:54:00,53.7,43.8,30.11,ENE,68,0.0,0.0,69,0.00,,,0.00,WUHU216HW,2013-02-03 04:54:00,
2013-02-02 23:59:00,53.6,43.6,30.11,ENE,68,0.0,0.0,69,0.00,,,0.00,WUHU216HW,2013-02-03 04:59:00,